Location: ?sanag?dem
(16.9522°N, 81.1036°E)
Time: 19:18:45
(UTC+00:00)

AO-27 - Visible Passes

Search period start: 20 July 2025 00:00
Search period end: 30 July 2025 00:00
Orbit: 783 x 795 km, 98.7° (Epoch: 20 July)

Date Brightness Start Highest point End Pass type
(mag) Time Alt. Az. Time Alt. Az. Time Alt. Az.
20 Jul 9.8 14:55:49 12° NE 14:55:49 12° NE 14:56:29 10° NE visible
20 Jul 10.1 16:36:31 17° NW 16:36:31 17° NW 16:37:49 10° NNW visible
21 Jul 9.6 16:06:22 24° NNW 16:06:22 24° NNW 16:08:21 10° NNW visible
22 Jul 9.4 15:36:13 22° NNE 15:36:13 22° NNE 15:38:15 10° N visible
23 Jul 9.7 15:06:03 14° NE 15:06:03 14° NE 15:07:14 10° NNE visible
23 Jul 10.4 16:46:46 13° NW 16:46:46 13° NW 16:47:29 10° NW visible
24 Jul 9.8 16:16:36 21° NNW 16:16:36 21° NNW 16:18:16 10° NNW visible
25 Jul 9.5 15:46:27 22° N 15:46:27 22° N 15:48:22 10° N visible
26 Jul 9.7 15:16:18 16° NE 15:16:18 16° NE 15:17:43 10° NNE visible
26 Jul 10.7 16:57:00 10° NW 16:57:00 10° NW 16:57:01 10° NW visible
27 Jul 10.1 16:26:52 17° NNW 16:26:52 17° NNW 16:28:06 10° NNW visible
28 Jul 9.7 15:56:43 21° N 15:56:43 21° N 15:58:25 10° N visible
29 Jul 9.7 15:26:35 17° NNE 15:26:35 17° NNE 15:28:03 10° NNE visible
